User: anonymous   Login
Location: Unspecified
(0.0000°N, 0.0000°E)
Time: 04:32:11
(UTC+00:00)
Language:

KITSAT 1 - Orbit

View from above orbital plane
View from above orbital plane
View from above satellite
View from above satellite

Ground track
Ground track

The orbit data is extracted from the following two-line orbital elements,

1 22077U 92052B   18349.93926883 -.00000059 +00000-0 +97578-5 0  9995
2 22077 066.0855 261.2942 0004729 194.9895 242.2126 12.86526057237354
Epoch (UTC): 15 December 2018 22:32:32
Eccentricity: 0.0004729
inclination: 66.0855°
perigee height: 1312 km
apogee height: 1319 km
right ascension of ascending node: 261.2942°
argument of perigee: 194.9895°
revolutions per day: 12.86526057
mean anomaly at epoch: 242.2126°
orbit number at epoch: 23735

The dashed part of the orbit path shows where the satellite is in the earth's shadow,  

DLR